Year,Month,Day,Hour,Minute,Value (Times are PST for temperature in C)
2021,05,04,00,00,9.50
2021,05,04,00,01,9.40
2021,05,04,00,02,9.40
2021,05,04,00,03,9.40
2021,05,04,00,04,9.40
2021,05,04,00,05,9.40
2021,05,04,00,06,9.30
2021,05,04,00,07,9.30
2021,05,04,00,08,9.30
2021,05,04,00,09,9.30
2021,05,04,00,10,9.20
2021,05,04,00,11,9.20
2021,05,04,00,12,9.20
2021,05,04,00,13,9.20
2021,05,04,00,14,9.20
2021,05,04,00,15,9.20
2021,05,04,00,16,9.20
2021,05,04,00,17,9.20
2021,05,04,00,18,9.20
2021,05,04,00,19,9.20
2021,05,04,00,20,9.20
2021,05,04,00,21,9.20
2021,05,04,00,22,9.20
2021,05,04,00,23,9.20
2021,05,04,00,24,9.20
2021,05,04,00,25,9.20
2021,05,04,00,26,9.20
2021,05,04,00,27,9.20
2021,05,04,00,28,9.20
2021,05,04,00,29,9.20
2021,05,04,00,30,9.10
2021,05,04,00,31,9.10
2021,05,04,00,32,9.00
2021,05,04,00,33,9.00
2021,05,04,00,34,9.00
2021,05,04,00,35,8.90
2021,05,04,00,36,8.90
2021,05,04,00,37,8.80
2021,05,04,00,38,8.80
2021,05,04,00,39,8.80
2021,05,04,00,40,8.70
2021,05,04,00,41,8.70
2021,05,04,00,42,8.70
2021,05,04,00,43,8.70
2021,05,04,00,44,8.60
2021,05,04,00,45,8.60
2021,05,04,00,46,8.60
2021,05,04,00,47,8.50
2021,05,04,00,48,8.50
2021,05,04,00,49,8.50
2021,05,04,00,50,8.40
2021,05,04,00,51,8.40
2021,05,04,00,52,8.40
2021,05,04,00,53,8.40
2021,05,04,00,54,8.40
2021,05,04,00,55,8.30
2021,05,04,00,56,8.30
2021,05,04,00,57,8.30
2021,05,04,00,58,8.30
2021,05,04,00,59,8.30
2021,05,04,01,00,8.20
2021,05,04,01,01,8.20
2021,05,04,01,02,8.20
2021,05,04,01,03,8.20
2021,05,04,01,04,8.20
2021,05,04,01,05,8.20
2021,05,04,01,06,8.20
2021,05,04,01,07,8.20
2021,05,04,01,08,8.20
2021,05,04,01,09,8.20
2021,05,04,01,10,8.20
2021,05,04,01,11,8.20
2021,05,04,01,12,8.20
2021,05,04,01,13,8.10
2021,05,04,01,14,8.10
2021,05,04,01,15,8.10
2021,05,04,01,16,8.10
2021,05,04,01,17,8.10
2021,05,04,01,18,8.10
2021,05,04,01,19,8.10
2021,05,04,01,20,8.10
2021,05,04,01,21,8.10
2021,05,04,01,22,8.00
2021,05,04,01,23,8.00
2021,05,04,01,24,8.00
2021,05,04,01,25,8.00
2021,05,04,01,26,8.00
2021,05,04,01,27,8.00
2021,05,04,01,28,8.00
2021,05,04,01,29,8.00
2021,05,04,01,30,8.00
2021,05,04,01,31,8.00
2021,05,04,01,32,8.00
2021,05,04,01,33,8.00
2021,05,04,01,34,8.00
2021,05,04,01,35,8.00
2021,05,04,01,36,8.00
2021,05,04,01,37,8.00
2021,05,04,01,38,8.00
2021,05,04,01,39,8.00
2021,05,04,01,40,8.00
2021,05,04,01,41,8.00
2021,05,04,01,42,8.00
2021,05,04,01,43,8.00
2021,05,04,01,44,8.00
2021,05,04,01,45,7.90
2021,05,04,01,46,7.90
2021,05,04,01,47,7.90
2021,05,04,01,48,7.90
2021,05,04,01,49,7.90
2021,05,04,01,50,7.80
2021,05,04,01,51,7.80
2021,05,04,01,52,7.80
2021,05,04,01,53,7.80
2021,05,04,01,54,7.80
2021,05,04,01,55,7.80
2021,05,04,01,56,7.80
2021,05,04,01,57,7.80
2021,05,04,01,58,7.80
2021,05,04,01,59,7.80
2021,05,04,02,00,7.80
2021,05,04,02,01,7.80
2021,05,04,02,02,7.80
2021,05,04,02,03,7.80
2021,05,04,02,04,7.80
2021,05,04,02,05,7.80
2021,05,04,02,06,7.80
2021,05,04,02,07,7.80
2021,05,04,02,08,7.80
2021,05,04,02,09,7.80
2021,05,04,02,10,7.80
2021,05,04,02,11,7.80
2021,05,04,02,12,7.80
2021,05,04,02,13,7.80
2021,05,04,02,14,7.80
2021,05,04,02,15,7.80
2021,05,04,02,16,7.80
2021,05,04,02,17,7.80
2021,05,04,02,18,7.80
2021,05,04,02,19,7.80
2021,05,04,02,20,7.70
2021,05,04,02,21,7.70
2021,05,04,02,22,7.70
2021,05,04,02,23,7.70
2021,05,04,02,24,7.70
2021,05,04,02,25,7.70
2021,05,04,02,26,7.60
2021,05,04,02,27,7.60
2021,05,04,02,28,7.60
2021,05,04,02,29,7.60
2021,05,04,02,30,7.60
2021,05,04,02,31,7.50
2021,05,04,02,32,7.50
2021,05,04,02,33,7.50
2021,05,04,02,34,7.50
2021,05,04,02,35,7.50
2021,05,04,02,36,7.50
2021,05,04,02,37,7.50
2021,05,04,02,38,7.50
2021,05,04,02,39,7.40
2021,05,04,02,40,7.40
2021,05,04,02,41,7.40
2021,05,04,02,42,7.40
2021,05,04,02,43,7.40
2021,05,04,02,44,7.30
2021,05,04,02,45,7.30
2021,05,04,02,46,7.30
2021,05,04,02,47,7.30
2021,05,04,02,48,7.30
2021,05,04,02,49,7.30
2021,05,04,02,50,7.30
2021,05,04,02,51,7.30
2021,05,04,02,52,7.30
2021,05,04,02,53,7.20
2021,05,04,02,54,7.20
2021,05,04,02,55,7.20
2021,05,04,02,56,7.20
2021,05,04,02,57,7.10
2021,05,04,02,58,7.10
2021,05,04,02,59,7.10
2021,05,04,03,00,7.10
2021,05,04,03,01,7.10
2021,05,04,03,02,7.00
2021,05,04,03,03,7.00
2021,05,04,03,04,7.00
2021,05,04,03,05,6.90
2021,05,04,03,06,6.90
2021,05,04,03,07,6.90
2021,05,04,03,08,6.80
2021,05,04,03,09,6.80
2021,05,04,03,10,6.80
2021,05,04,03,11,6.80
2021,05,04,03,12,6.80
2021,05,04,03,13,6.70
2021,05,04,03,14,6.70
2021,05,04,03,15,6.70
2021,05,04,03,16,6.70
2021,05,04,03,17,6.60
2021,05,04,03,18,6.60
2021,05,04,03,19,6.60
2021,05,04,03,20,6.60
2021,05,04,03,21,6.60
2021,05,04,03,22,6.60
2021,05,04,03,23,6.60
2021,05,04,03,24,6.60
2021,05,04,03,25,6.60
2021,05,04,03,26,6.60
2021,05,04,03,27,6.60
2021,05,04,03,28,6.60
2021,05,04,03,29,6.60
2021,05,04,03,30,6.60
2021,05,04,03,31,6.60
2021,05,04,03,32,6.70
2021,05,04,03,33,6.70
2021,05,04,03,34,6.70
2021,05,04,03,35,6.80
2021,05,04,03,36,6.80
2021,05,04,03,37,6.80
2021,05,04,03,38,6.80
2021,05,04,03,39,6.80
2021,05,04,03,40,6.80
2021,05,04,03,41,6.90
2021,05,04,03,42,6.90
2021,05,04,03,43,7.00
2021,05,04,03,44,7.00
2021,05,04,03,45,7.00
2021,05,04,03,46,7.00
2021,05,04,03,47,7.00
2021,05,04,03,48,7.00
2021,05,04,03,49,7.10
2021,05,04,03,50,7.10
2021,05,04,03,51,7.00
2021,05,04,03,52,7.00
2021,05,04,03,53,7.00
2021,05,04,03,54,7.00
2021,05,04,03,55,7.00
2021,05,04,03,56,6.90
2021,05,04,03,57,6.90
2021,05,04,03,58,6.90
2021,05,04,03,59,6.90
2021,05,04,04,00,6.80
2021,05,04,04,01,6.80
2021,05,04,04,02,6.80
2021,05,04,04,03,6.80
2021,05,04,04,04,6.80
2021,05,04,04,05,6.80
2021,05,04,04,06,6.80
2021,05,04,04,07,6.80
2021,05,04,04,08,6.80
2021,05,04,04,09,6.70
2021,05,04,04,10,6.70
2021,05,04,04,11,6.70
2021,05,04,04,12,6.70
2021,05,04,04,13,6.70
2021,05,04,04,14,6.70
2021,05,04,04,15,6.70
2021,05,04,04,16,6.70
2021,05,04,04,17,6.70
2021,05,04,04,18,6.70
2021,05,04,04,19,6.70
2021,05,04,04,20,6.70
2021,05,04,04,21,6.80
2021,05,04,04,22,6.80
2021,05,04,04,23,6.80
2021,05,04,04,24,6.80
2021,05,04,04,25,6.80
2021,05,04,04,26,6.80
2021,05,04,04,27,6.80
2021,05,04,04,28,6.80
2021,05,04,04,29,6.80
2021,05,04,04,30,6.80
2021,05,04,04,31,6.80
2021,05,04,04,32,6.80
2021,05,04,04,33,6.80
2021,05,04,04,34,6.80
2021,05,04,04,35,6.80
2021,05,04,04,36,6.80
2021,05,04,04,37,6.80
2021,05,04,04,38,6.70
2021,05,04,04,39,6.70
2021,05,04,04,40,6.70
2021,05,04,04,41,6.70
2021,05,04,04,42,6.70
2021,05,04,04,43,6.60
2021,05,04,04,44,6.60
2021,05,04,04,45,6.60
2021,05,04,04,46,6.60
2021,05,04,04,47,6.60
2021,05,04,04,48,6.60
2021,05,04,04,49,6.60
2021,05,04,04,50,6.60
2021,05,04,04,51,6.60
2021,05,04,04,52,6.60
2021,05,04,04,53,6.60
2021,05,04,04,54,6.60
2021,05,04,04,55,6.60
2021,05,04,04,56,6.60
2021,05,04,04,57,6.70
2021,05,04,04,58,6.70
2021,05,04,04,59,6.70
2021,05,04,05,00,6.70
2021,05,04,05,01,6.70
2021,05,04,05,02,6.70
2021,05,04,05,03,6.70
2021,05,04,05,04,6.80
2021,05,04,05,05,6.80
2021,05,04,05,06,6.80
2021,05,04,05,07,6.80
2021,05,04,05,08,6.80
2021,05,04,05,09,6.80
2021,05,04,05,10,6.80
2021,05,04,05,11,6.80
2021,05,04,05,12,6.80
2021,05,04,05,13,6.80
2021,05,04,05,14,6.80
2021,05,04,05,15,6.90
2021,05,04,05,16,6.90
2021,05,04,05,17,6.90
2021,05,04,05,18,6.90
2021,05,04,05,19,6.90
2021,05,04,05,20,7.00
2021,05,04,05,21,7.00
2021,05,04,05,22,7.00
2021,05,04,05,23,7.00
2021,05,04,05,24,7.00
2021,05,04,05,25,7.00
2021,05,04,05,26,7.00
2021,05,04,05,27,7.10
2021,05,04,05,28,7.10
2021,05,04,05,29,7.10
2021,05,04,05,30,7.10
2021,05,04,05,31,7.10
2021,05,04,05,32,7.10
2021,05,04,05,33,7.20
2021,05,04,05,34,7.20
2021,05,04,05,35,7.20
2021,05,04,05,36,7.20
2021,05,04,05,37,7.20
2021,05,04,05,38,7.30
2021,05,04,05,39,7.30
2021,05,04,05,40,7.30
2021,05,04,05,41,7.30
2021,05,04,05,42,7.30
2021,05,04,05,43,7.40
2021,05,04,05,44,7.40
2021,05,04,05,45,7.50
2021,05,04,05,46,7.50
2021,05,04,05,47,7.50
2021,05,04,05,48,7.60
2021,05,04,05,49,7.60
2021,05,04,05,50,7.60
2021,05,04,05,51,7.70
2021,05,04,05,52,7.70
2021,05,04,05,53,7.80
2021,05,04,05,54,7.80
2021,05,04,05,55,7.80
2021,05,04,05,56,7.80
2021,05,04,05,57,7.80
2021,05,04,05,58,7.90
2021,05,04,05,59,7.90
2021,05,04,06,00,7.90
2021,05,04,06,01,8.00
2021,05,04,06,02,8.00
2021,05,04,06,03,8.00
2021,05,04,06,04,8.00
2021,05,04,06,05,8.00
2021,05,04,06,06,8.10
2021,05,04,06,07,8.10
2021,05,04,06,08,8.10
2021,05,04,06,09,8.10
2021,05,04,06,10,8.10
2021,05,04,06,11,8.10
2021,05,04,06,12,8.20
2021,05,04,06,13,8.20
2021,05,04,06,14,8.20
2021,05,04,06,15,8.20
2021,05,04,06,16,8.20
2021,05,04,06,17,8.20
2021,05,04,06,18,8.20
2021,05,04,06,19,8.30
2021,05,04,06,20,8.30
2021,05,04,06,21,8.30
2021,05,04,06,22,8.30
2021,05,04,06,23,8.30
2021,05,04,06,24,8.40
2021,05,04,06,25,8.40
2021,05,04,06,26,8.40
2021,05,04,06,27,8.40
2021,05,04,06,28,8.40
2021,05,04,06,29,8.50
2021,05,04,06,30,8.50
2021,05,04,06,31,8.50
2021,05,04,06,32,8.50
2021,05,04,06,33,8.50
2021,05,04,06,34,8.50
2021,05,04,06,35,8.60
2021,05,04,06,36,8.60
2021,05,04,06,37,8.60
2021,05,04,06,38,8.60
2021,05,04,06,39,8.60
2021,05,04,06,40,8.70
2021,05,04,06,41,8.70
2021,05,04,06,42,8.70
2021,05,04,06,43,8.70
2021,05,04,06,44,8.70
2021,05,04,06,45,8.70
2021,05,04,06,46,8.70
2021,05,04,06,47,8.70
2021,05,04,06,48,8.70
2021,05,04,06,49,8.70
2021,05,04,06,50,8.70
2021,05,04,06,51,8.80
2021,05,04,06,52,8.80
2021,05,04,06,53,8.80
2021,05,04,06,54,8.80
2021,05,04,06,55,8.90
2021,05,04,06,56,8.90
2021,05,04,06,57,8.90
2021,05,04,06,58,8.90
2021,05,04,06,59,9.00
2021,05,04,07,00,9.00
2021,05,04,07,01,9.00
2021,05,04,07,02,9.00
2021,05,04,07,03,9.10
2021,05,04,07,04,9.10
2021,05,04,07,05,9.10
2021,05,04,07,06,9.20
2021,05,04,07,07,9.20
2021,05,04,07,08,9.20
2021,05,04,07,09,9.20
2021,05,04,07,10,9.20
2021,05,04,07,11,9.20
2021,05,04,07,12,9.20
2021,05,04,07,13,9.20
2021,05,04,07,14,9.30
2021,05,04,07,15,9.30
2021,05,04,07,16,9.30
2021,05,04,07,17,9.30
2021,05,04,07,18,9.40
2021,05,04,07,19,9.40
2021,05,04,07,20,9.40
2021,05,04,07,21,9.40
2021,05,04,07,22,9.50
2021,05,04,07,23,9.50
2021,05,04,07,24,9.50
2021,05,04,07,25,9.50
2021,05,04,07,26,9.50
2021,05,04,07,27,9.60
2021,05,04,07,28,9.60
2021,05,04,07,29,9.60
2021,05,04,07,30,9.60
2021,05,04,07,31,9.60
2021,05,04,07,32,9.60
2021,05,04,07,33,9.70
2021,05,04,07,34,9.70
2021,05,04,07,35,9.70
2021,05,04,07,36,9.70
2021,05,04,07,37,9.70
2021,05,04,07,38,9.70
2021,05,04,07,39,9.70
2021,05,04,07,40,9.70
2021,05,04,07,41,9.80
2021,05,04,07,42,9.80
2021,05,04,07,43,9.80
2021,05,04,07,44,9.90
2021,05,04,07,45,9.90
2021,05,04,07,46,9.90
2021,05,04,07,47,9.90
2021,05,04,07,48,9.90
2021,05,04,07,49,9.90
2021,05,04,07,50,9.90
2021,05,04,07,51,9.90
2021,05,04,07,52,10.00
2021,05,04,07,53,10.10
2021,05,04,07,54,10.10
2021,05,04,07,55,10.10
2021,05,04,07,56,10.10
2021,05,04,07,57,10.10
2021,05,04,07,58,10.10
2021,05,04,07,59,10.20
2021,05,04,08,00,10.20
2021,05,04,08,01,10.20
2021,05,04,08,02,10.30
2021,05,04,08,03,10.30
2021,05,04,08,04,10.30
2021,05,04,08,05,10.30
2021,05,04,08,06,10.40
2021,05,04,08,07,10.40
2021,05,04,08,08,10.40
2021,05,04,08,09,10.40
2021,05,04,08,10,10.40
2021,05,04,08,11,10.40
2021,05,04,08,12,10.40
2021,05,04,08,13,10.40
2021,05,04,08,14,10.40
2021,05,04,08,15,10.50
2021,05,04,08,16,10.60
2021,05,04,08,17,10.60
2021,05,04,08,18,10.60
2021,05,04,08,19,10.60
2021,05,04,08,20,10.70
2021,05,04,08,21,10.70
2021,05,04,08,22,10.70
2021,05,04,08,23,10.80
2021,05,04,08,24,10.80
2021,05,04,08,25,10.90
2021,05,04,08,26,10.90
2021,05,04,08,27,10.90
2021,05,04,08,28,10.90
2021,05,04,08,29,10.90
2021,05,04,08,30,10.90
2021,05,04,08,31,10.90
2021,05,04,08,32,11.10
2021,05,04,08,33,11.10
2021,05,04,08,34,11.10
2021,05,04,08,35,11.10
2021,05,04,08,36,11.10
2021,05,04,08,37,11.10
2021,05,04,08,38,11.10
2021,05,04,08,39,11.10
2021,05,04,08,40,11.10
2021,05,04,08,41,11.10
2021,05,04,08,42,11.10
2021,05,04,08,43,11.10
2021,05,04,08,44,11.20
2021,05,04,08,45,11.20
2021,05,04,08,46,11.20
2021,05,04,08,47,11.20
2021,05,04,08,48,11.20
2021,05,04,08,49,11.30
2021,05,04,08,50,11.30
2021,05,04,08,51,11.30
2021,05,04,08,52,11.40
2021,05,04,08,53,11.40
2021,05,04,08,54,11.40
2021,05,04,08,55,11.40
2021,05,04,08,56,11.50
2021,05,04,08,57,11.60
2021,05,04,08,58,11.60
2021,05,04,08,59,11.70
2021,05,04,09,00,11.80
2021,05,04,09,01,11.80
2021,05,04,09,02,11.80
2021,05,04,09,03,11.80
2021,05,04,09,04,11.80
2021,05,04,09,05,11.90
2021,05,04,09,06,11.90
2021,05,04,09,07,12.00
2021,05,04,09,08,12.00
2021,05,04,09,09,12.00
2021,05,04,09,10,12.10
2021,05,04,09,11,12.10
2021,05,04,09,12,12.20
2021,05,04,09,13,12.20
2021,05,04,09,14,12.30
2021,05,04,09,15,12.30
2021,05,04,09,16,12.30
2021,05,04,09,17,12.40
2021,05,04,09,18,12.50
2021,05,04,09,19,12.50
2021,05,04,09,20,12.60
2021,05,04,09,21,12.70
2021,05,04,09,22,12.70
2021,05,04,09,23,12.80
2021,05,04,09,24,12.80
2021,05,04,09,25,12.80
2021,05,04,09,26,12.90
2021,05,04,09,27,12.90
2021,05,04,09,28,13.00
2021,05,04,09,29,13.00
2021,05,04,09,30,13.10
2021,05,04,09,31,13.10
2021,05,04,09,32,13.20
2021,05,04,09,33,13.20
2021,05,04,09,34,13.30
2021,05,04,09,35,13.30
2021,05,04,09,36,13.40
2021,05,04,09,37,13.40
2021,05,04,09,38,13.50
2021,05,04,09,39,13.50
2021,05,04,09,40,13.60
2021,05,04,09,41,13.70
2021,05,04,09,42,13.80
2021,05,04,09,43,13.90
2021,05,04,09,44,13.90
2021,05,04,09,45,14.00
2021,05,04,09,46,14.00
2021,05,04,09,47,14.00
2021,05,04,09,48,14.00
2021,05,04,09,49,14.00
2021,05,04,09,50,14.10
2021,05,04,09,51,14.10
2021,05,04,09,52,14.20
2021,05,04,09,53,14.20
2021,05,04,09,54,14.20
2021,05,04,09,55,14.20
2021,05,04,09,56,14.20
2021,05,04,09,57,14.30
2021,05,04,09,58,14.30
2021,05,04,09,59,14.30
2021,05,04,10,00,14.30
2021,05,04,10,01,14.20
2021,05,04,10,02,14.10
2021,05,04,10,03,14.00
2021,05,04,10,04,14.00
2021,05,04,10,05,14.00
2021,05,04,10,06,14.10
2021,05,04,10,07,14.20
2021,05,04,10,08,14.30
2021,05,04,10,09,14.50
2021,05,04,10,10,14.50
2021,05,04,10,11,14.60
2021,05,04,10,12,14.70
2021,05,04,10,13,14.70
2021,05,04,10,14,14.80
2021,05,04,10,15,14.80
2021,05,04,10,16,14.80
2021,05,04,10,17,14.80
2021,05,04,10,18,14.80
2021,05,04,10,19,14.80
2021,05,04,10,20,14.80
2021,05,04,10,21,14.80
2021,05,04,10,22,14.90
2021,05,04,10,23,14.90
2021,05,04,10,24,14.90
2021,05,04,10,25,14.90
2021,05,04,10,26,14.90
2021,05,04,10,27,15.00
2021,05,04,10,28,15.10
2021,05,04,10,29,15.10
2021,05,04,10,30,15.20
2021,05,04,10,31,15.30
2021,05,04,10,32,15.40
2021,05,04,10,33,15.50
2021,05,04,10,34,15.60
2021,05,04,10,35,15.60
2021,05,04,10,36,15.70
2021,05,04,10,37,15.80
2021,05,04,10,38,15.80
2021,05,04,10,39,15.80
2021,05,04,10,40,15.80
2021,05,04,10,41,15.80
2021,05,04,10,42,15.80
2021,05,04,10,43,15.70
2021,05,04,10,44,15.60
2021,05,04,10,45,15.60
2021,05,04,10,46,15.60
2021,05,04,10,47,15.60
2021,05,04,10,48,15.50
2021,05,04,10,49,15.60
2021,05,04,10,50,15.50
2021,05,04,10,51,15.50
2021,05,04,10,52,15.50
2021,05,04,10,53,15.60
2021,05,04,10,54,15.60
2021,05,04,10,55,15.70
2021,05,04,10,56,15.80
2021,05,04,10,57,15.90
2021,05,04,10,58,15.90
2021,05,04,10,59,16.00
2021,05,04,11,00,16.10
2021,05,04,11,01,16.10
2021,05,04,11,02,16.20
2021,05,04,11,03,16.20
2021,05,04,11,04,16.30
2021,05,04,11,05,16.20
2021,05,04,11,06,16.20
2021,05,04,11,07,16.10
2021,05,04,11,08,16.10
2021,05,04,11,09,16.00
2021,05,04,11,10,15.90
2021,05,04,11,11,15.80
2021,05,04,11,12,15.70
2021,05,04,11,13,15.70
2021,05,04,11,14,15.60
2021,05,04,11,15,15.60
2021,05,04,11,16,15.60
2021,05,04,11,17,15.60
2021,05,04,11,18,15.70
2021,05,04,11,19,15.70
2021,05,04,11,20,15.70
2021,05,04,11,21,15.70
2021,05,04,11,22,15.70
2021,05,04,11,23,15.80
2021,05,04,11,24,15.80
2021,05,04,11,25,15.80
2021,05,04,11,26,15.80
2021,05,04,11,27,15.80
2021,05,04,11,28,15.80
2021,05,04,11,29,15.80
2021,05,04,11,30,15.80
2021,05,04,11,31,15.80
2021,05,04,11,32,15.80
2021,05,04,11,33,15.90
2021,05,04,11,34,15.90
2021,05,04,11,35,15.90
2021,05,04,11,36,16.00
2021,05,04,11,37,16.10
2021,05,04,11,38,16.10
2021,05,04,11,39,16.20
2021,05,04,11,40,16.20
2021,05,04,11,41,16.10
2021,05,04,11,42,16.10
2021,05,04,11,43,16.10
2021,05,04,11,44,16.10
2021,05,04,11,45,16.20
2021,05,04,11,46,16.20
2021,05,04,11,47,16.20
2021,05,04,11,48,16.20
2021,05,04,11,49,16.10
2021,05,04,11,50,16.10
2021,05,04,11,51,16.10
2021,05,04,11,52,16.10
2021,05,04,11,53,16.10
2021,05,04,11,54,16.10
2021,05,04,11,55,16.10
2021,05,04,11,56,16.10
2021,05,04,11,57,16.10
2021,05,04,11,58,16.10
2021,05,04,11,59,16.10
2021,05,04,12,00,16.10
2021,05,04,12,01,16.00
2021,05,04,12,02,15.90
2021,05,04,12,03,15.90
2021,05,04,12,04,15.90
2021,05,04,12,05,16.00
2021,05,04,12,06,15.90
2021,05,04,12,07,15.90
2021,05,04,12,08,15.90
2021,05,04,12,09,15.90
2021,05,04,12,10,15.90
2021,05,04,12,11,15.80
2021,05,04,12,12,15.80
2021,05,04,12,13,15.90
2021,05,04,12,14,16.00
2021,05,04,12,15,16.10
2021,05,04,12,16,16.10
2021,05,04,12,17,16.10
2021,05,04,12,18,16.20
2021,05,04,12,19,16.30
2021,05,04,12,20,16.30
2021,05,04,12,21,16.40
2021,05,04,12,22,16.50
2021,05,04,12,23,16.60
2021,05,04,12,24,16.60
2021,05,04,12,25,16.60
2021,05,04,12,26,16.70
2021,05,04,12,27,16.70
2021,05,04,12,28,16.70
2021,05,04,12,29,16.70
2021,05,04,12,30,16.70
2021,05,04,12,31,16.70
2021,05,04,12,32,16.70
2021,05,04,12,33,16.70
2021,05,04,12,34,16.70
2021,05,04,12,35,16.70
2021,05,04,12,36,16.70
2021,05,04,12,37,16.80
2021,05,04,12,38,16.90
2021,05,04,12,39,16.90
2021,05,04,12,40,16.90
2021,05,04,12,41,16.90
2021,05,04,12,42,16.90
2021,05,04,12,43,16.90
2021,05,04,12,44,16.90
2021,05,04,12,45,17.00
2021,05,04,12,46,17.10
2021,05,04,12,47,17.20
2021,05,04,12,48,17.30
2021,05,04,12,49,17.30
2021,05,04,12,50,17.30
2021,05,04,12,51,17.30
2021,05,04,12,52,17.20
2021,05,04,12,53,17.20
2021,05,04,12,54,17.20
2021,05,04,12,55,17.10
2021,05,04,12,56,17.10
2021,05,04,12,57,17.10
2021,05,04,12,58,17.10
2021,05,04,12,59,17.00
2021,05,04,13,00,17.00
2021,05,04,13,01,17.00
2021,05,04,13,02,16.90
2021,05,04,13,03,16.90
2021,05,04,13,04,16.90
2021,05,04,13,05,16.90
2021,05,04,13,06,16.90
2021,05,04,13,07,16.80
2021,05,04,13,08,16.80
2021,05,04,13,09,16.70
2021,05,04,13,10,16.60
2021,05,04,13,11,16.60
2021,05,04,13,12,16.70
2021,05,04,13,13,16.70
2021,05,04,13,14,16.70
2021,05,04,13,15,16.80
2021,05,04,13,16,16.80
2021,05,04,13,17,16.70
2021,05,04,13,18,16.70
2021,05,04,13,19,16.70
2021,05,04,13,20,16.60
2021,05,04,13,21,16.60
2021,05,04,13,22,16.60
2021,05,04,13,23,16.60
2021,05,04,13,24,16.70
2021,05,04,13,25,16.70
2021,05,04,13,26,16.70
2021,05,04,13,27,16.70
2021,05,04,13,28,16.70
2021,05,04,13,29,16.70
2021,05,04,13,30,16.70
2021,05,04,13,31,16.70
2021,05,04,13,32,16.70
2021,05,04,13,33,16.70
2021,05,04,13,34,16.70
2021,05,04,13,35,16.70
2021,05,04,13,36,16.70
2021,05,04,13,37,16.70
2021,05,04,13,38,16.70
2021,05,04,13,39,16.70
2021,05,04,13,40,16.70
2021,05,04,13,41,16.70
2021,05,04,13,42,16.70
2021,05,04,13,43,16.70
2021,05,04,13,44,16.70
2021,05,04,13,45,16.70
2021,05,04,13,46,16.80
2021,05,04,13,47,16.90
2021,05,04,13,48,16.90
2021,05,04,13,49,16.90
2021,05,04,13,50,16.90
2021,05,04,13,51,16.90
2021,05,04,13,52,16.90
2021,05,04,13,53,16.90
2021,05,04,13,54,16.90
2021,05,04,13,55,16.90
2021,05,04,13,56,16.80
2021,05,04,13,57,16.80
2021,05,04,13,58,16.90
2021,05,04,13,59,16.90
2021,05,04,14,00,16.90
2021,05,04,14,01,17.00
2021,05,04,14,02,17.00
2021,05,04,14,03,17.10
2021,05,04,14,04,17.20
2021,05,04,14,05,17.30
2021,05,04,14,06,17.30
2021,05,04,14,07,17.30
2021,05,04,14,08,17.30
2021,05,04,14,09,17.30
2021,05,04,14,10,17.30
2021,05,04,14,11,17.30
2021,05,04,14,12,17.30
2021,05,04,14,13,17.30
2021,05,04,14,14,17.30
2021,05,04,14,15,17.30
2021,05,04,14,16,17.30
2021,05,04,14,17,17.30
2021,05,04,14,18,17.40
2021,05,04,14,19,17.40
2021,05,04,14,20,17.40
2021,05,04,14,21,17.30
2021,05,04,14,22,17.30
2021,05,04,14,23,17.30
2021,05,04,14,24,17.20
2021,05,04,14,25,17.20
2021,05,04,14,26,17.10
2021,05,04,14,27,17.00
2021,05,04,14,28,17.00
2021,05,04,14,29,17.10
2021,05,04,14,30,17.10
2021,05,04,14,31,17.10
2021,05,04,14,32,17.30
2021,05,04,14,33,17.40
2021,05,04,14,34,17.50
2021,05,04,14,35,17.60
2021,05,04,14,36,17.70
2021,05,04,14,37,17.70
2021,05,04,14,38,17.80
2021,05,04,14,39,17.80
2021,05,04,14,40,17.80
2021,05,04,14,41,17.70
2021,05,04,14,42,17.70
2021,05,04,14,43,17.70
2021,05,04,14,44,17.70
2021,05,04,14,45,17.50
2021,05,04,14,46,17.50
2021,05,04,14,47,17.40
2021,05,04,14,48,17.30
2021,05,04,14,49,17.30
2021,05,04,14,50,17.30
2021,05,04,14,51,17.30
2021,05,04,14,52,17.30
2021,05,04,14,53,17.40
2021,05,04,14,54,17.40
2021,05,04,14,55,17.40
2021,05,04,14,56,17.40
2021,05,04,14,57,17.40
2021,05,04,14,58,17.30
2021,05,04,14,59,17.30
2021,05,04,15,00,17.30
2021,05,04,15,01,17.30
2021,05,04,15,02,17.30
2021,05,04,15,03,17.30
2021,05,04,15,04,17.30
2021,05,04,15,05,17.30
2021,05,04,15,06,17.30
2021,05,04,15,07,17.40
2021,05,04,15,08,17.40
2021,05,04,15,09,17.40
2021,05,04,15,10,17.40
2021,05,04,15,11,17.30
2021,05,04,15,12,17.30
2021,05,04,15,13,17.30
2021,05,04,15,14,17.30
2021,05,04,15,15,17.30
2021,05,04,15,16,17.30
2021,05,04,15,17,17.30
2021,05,04,15,18,17.40
2021,05,04,15,19,17.50
2021,05,04,15,20,17.60
2021,05,04,15,21,17.60
2021,05,04,15,22,17.50
2021,05,04,15,23,17.40
2021,05,04,15,24,17.30
2021,05,04,15,25,17.30
2021,05,04,15,26,17.20
2021,05,04,15,27,17.20
2021,05,04,15,28,17.20
2021,05,04,15,29,17.30
2021,05,04,15,30,17.30
2021,05,04,15,31,17.30
2021,05,04,15,32,17.40
2021,05,04,15,33,17.40
2021,05,04,15,34,17.50
2021,05,04,15,35,17.50
2021,05,04,15,36,17.50
2021,05,04,15,37,17.40
2021,05,04,15,38,17.40
2021,05,04,15,39,17.40
2021,05,04,15,40,17.40
2021,05,04,15,41,17.50
2021,05,04,15,42,17.50
2021,05,04,15,43,17.60
2021,05,04,15,44,17.60
2021,05,04,15,45,17.70
2021,05,04,15,46,17.70
2021,05,04,15,47,17.80
2021,05,04,15,48,17.80
2021,05,04,15,49,17.90
2021,05,04,15,50,17.90
2021,05,04,15,51,17.90
2021,05,04,15,52,17.90
2021,05,04,15,53,18.00
2021,05,04,15,54,18.00
2021,05,04,15,55,17.90
2021,05,04,15,56,17.90
2021,05,04,15,57,17.90
2021,05,04,15,58,17.90
2021,05,04,15,59,18.00
2021,05,04,16,00,18.10
2021,05,04,16,01,18.00
2021,05,04,16,02,17.90
2021,05,04,16,03,17.90
2021,05,04,16,04,17.90
2021,05,04,16,05,17.90
2021,05,04,16,06,17.90
2021,05,04,16,07,17.90
2021,05,04,16,08,17.90
2021,05,04,16,09,17.80
2021,05,04,16,10,17.70
2021,05,04,16,11,17.70
2021,05,04,16,12,17.70
2021,05,04,16,13,17.70
2021,05,04,16,14,17.70
2021,05,04,16,15,17.70
2021,05,04,16,16,17.60
2021,05,04,16,17,17.60
2021,05,04,16,18,17.60
2021,05,04,16,19,17.60
2021,05,04,16,20,17.60
2021,05,04,16,21,17.60
2021,05,04,16,22,17.60
2021,05,04,16,23,17.50
2021,05,04,16,24,17.50
2021,05,04,16,25,17.40
2021,05,04,16,26,17.30
2021,05,04,16,27,17.30
2021,05,04,16,28,17.30
2021,05,04,16,29,17.30
2021,05,04,16,30,17.30
2021,05,04,16,31,17.30
2021,05,04,16,32,17.30
2021,05,04,16,33,17.30
2021,05,04,16,34,17.30
2021,05,04,16,35,17.40
2021,05,04,16,36,17.40
2021,05,04,16,37,17.50
2021,05,04,16,38,17.50
2021,05,04,16,39,17.50
2021,05,04,16,40,17.60
2021,05,04,16,41,17.60
2021,05,04,16,42,17.70
2021,05,04,16,43,17.70
2021,05,04,16,44,17.80
2021,05,04,16,45,17.80
2021,05,04,16,46,17.80
2021,05,04,16,47,17.80
2021,05,04,16,48,17.80
2021,05,04,16,49,17.70
2021,05,04,16,50,17.70
2021,05,04,16,51,17.70
2021,05,04,16,52,17.80
2021,05,04,16,53,17.80
2021,05,04,16,54,17.80
2021,05,04,16,55,17.70
2021,05,04,16,56,17.60
2021,05,04,16,57,17.50
2021,05,04,16,58,17.40
2021,05,04,16,59,17.30
2021,05,04,17,00,17.30
2021,05,04,17,01,17.30
2021,05,04,17,02,17.30
2021,05,04,17,03,17.30
2021,05,04,17,04,17.30
2021,05,04,17,05,17.30
2021,05,04,17,06,17.30
2021,05,04,17,07,17.30
2021,05,04,17,08,17.30
2021,05,04,17,09,17.30
2021,05,04,17,10,17.20
2021,05,04,17,11,17.20
2021,05,04,17,12,17.10
2021,05,04,17,13,17.10
2021,05,04,17,14,17.10
2021,05,04,17,15,17.10
2021,05,04,17,16,17.20
2021,05,04,17,17,17.20
2021,05,04,17,18,17.30
2021,05,04,17,19,17.30
2021,05,04,17,20,17.40
2021,05,04,17,21,17.40
2021,05,04,17,22,17.50
2021,05,04,17,23,17.50
2021,05,04,17,24,17.50
2021,05,04,17,25,17.60
2021,05,04,17,26,17.60
2021,05,04,17,27,17.60
2021,05,04,17,28,17.60
2021,05,04,17,29,17.60
2021,05,04,17,30,17.50
2021,05,04,17,31,17.50
2021,05,04,17,32,17.40
2021,05,04,17,33,17.30
2021,05,04,17,34,17.30
2021,05,04,17,35,17.30
2021,05,04,17,36,17.30
2021,05,04,17,37,17.30
2021,05,04,17,38,17.30
2021,05,04,17,39,17.30